Location: Caltech
(34.1382°N, 118.1253°W)
Time: 22:16:52
(UTC-07:00)

Aureole 2 Rocket - Visible Passes

Search period start: 29 June 2015 00:00
Search period end: 09 July 2015 00:00
Orbit: 340 x 681 km, 73.9° (Epoch: 28 June)

Date Brightness Start Highest point End Pass type
(mag) Time Alt. Az. Time Alt. Az. Time Alt. Az.
29 Jun 5.4 03:34:15 10° NNE 03:36:41 17° ENE 03:39:03 10° ESE visible
29 Jun 3.9 05:10:35 10° NW 05:13:14 19° W 05:15:36 10° SW visible
30 Jun 5.4 03:17:38 10° NNE 03:19:42 15° ENE 03:21:47 10° E visible
30 Jun 3.7 04:53:32 10° NW 04:56:21 22° W 04:58:54 10° SSW visible
01 Jul 5.5 03:01:07 10° NNE 03:02:42 13° ENE 03:04:23 10° E visible
01 Jul 3.5 04:36:29 10° NW 04:39:27 25° W 04:40:41 20° SW visible
02 Jul 5.6 02:44:46 10° NE 02:45:41 11° ENE 02:46:46 10° ENE visible
02 Jul 3.2 04:19:28 10° NW 04:22:33 28° W 04:22:42 28° WSW visible
03 Jul 3.4 04:02:25 10° NW 04:04:54 30° WNW 04:04:54 30° WNW visible
04 Jul 3.8 03:45:24 10° NNW 03:47:16 25° NW 03:47:16 25° NW visible
05 Jul 4.3 03:28:23 10° NNW 03:29:44 21° NW 03:29:44 21° NW visible
06 Jul 4.7 03:11:21 10° NNW 03:12:18 17° NNW 03:12:18 17° NNW visible
07 Jul 5.1 02:54:20 10° NNW 02:54:55 14° NNW 02:54:55 14° NNW visible
08 Jul 5.4 02:37:19 10° NNW 02:37:37 12° NNW 02:37:37 12° NNW visible
